TimeMDT,TemperatureF,Dew PointF,Humidity,Sea Level PressureIn,VisibilityMPH,Wind Direction,Wind SpeedMPH,Gust SpeedMPH,PrecipitationIn,Events,Conditions,WindDirDegrees,DateUTC
12:15 AM,59.2,10.9,15,30.17,10.0,NNW,5.8,-,N/A,,Clear,330,2013-05-25 06:15:00
12:35 AM,55.6,10.2,16,30.17,10.0,NW,3.5,-,N/A,,Clear,320,2013-05-25 06:35:00
12:55 AM,50.4,8.4,18,30.17,10.0,NNW,4.6,-,N/A,,Clear,330,2013-05-25 06:55:00
1:15 AM,55.2,8.8,16,30.17,10.0,Calm,Calm,-,N/A,,Clear,0,2013-05-25 07:15:00
1:35 AM,50.7,8.6,18,30.18,10.0,West,3.5,-,N/A,,Clear,260,2013-05-25 07:35:00
1:55 AM,50.7,8.1,18,30.17,10.0,West,3.5,-,N/A,,Clear,280,2013-05-25 07:55:00
2:15 AM,49.5,8.1,19,30.17,10.0,Calm,Calm,-,N/A,,Clear,0,2013-05-25 08:15:00
2:35 AM,48.2,7.9,19,30.18,10.0,Calm,Calm,-,N/A,,Clear,0,2013-05-25 08:35:00
2:55 AM,47.1,7.5,20,30.18,10.0,Calm,Calm,-,N/A,,Clear,0,2013-05-25 08:55:00
3:15 AM,47.5,7.5,20,30.18,10.0,Calm,Calm,-,N/A,,Clear,0,2013-05-25 09:15:00
3:35 AM,44.2,7.0,22,30.18,10.0,Calm,Calm,-,N/A,,Clear,0,2013-05-25 09:35:00
3:55 AM,42.1,5.7,22,30.19,10.0,Calm,Calm,-,N/A,,Clear,0,2013-05-25 09:55:00
4:15 AM,41.9,6.4,23,30.19,10.0,Calm,Calm,-,N/A,,Clear,0,2013-05-25 10:15:00
4:35 AM,43.0,8.4,24,30.19,10.0,Calm,Calm,-,N/A,,Clear,0,2013-05-25 10:35:00
4:55 AM,41.5,7.3,24,30.20,10.0,Calm,Calm,-,N/A,,Clear,0,2013-05-25 10:55:00
5:15 AM,37.4,4.5,25,30.20,10.0,Calm,Calm,-,N/A,,Clear,0,2013-05-25 11:15:00
5:35 AM,38.1,6.4,27,30.20,10.0,NNW,4.6,-,N/A,,Clear,330,2013-05-25 11:35:00
5:55 AM,36.1,4.6,27,30.20,10.0,NNW,6.9,-,N/A,,Clear,330,2013-05-25 11:55:00
6:15 AM,37.8,6.1,27,30.21,10.0,NW,4.6,-,N/A,,Clear,310,2013-05-25 12:15:00
6:35 AM,38.7,6.6,27,30.22,10.0,NW,3.5,-,N/A,,Clear,310,2013-05-25 12:35:00
6:55 AM,43.9,7.5,23,30.22,10.0,NNW,4.6,-,N/A,,Clear,330,2013-05-25 12:55:00
7:15 AM,46.2,8.1,21,30.23,10.0,NNW,6.9,-,N/A,,Clear,330,2013-05-25 13:15:00
7:35 AM,47.5,8.6,21,30.23,10.0,NW,5.8,-,N/A,,Clear,320,2013-05-25 13:35:00
7:55 AM,50.2,8.6,19,30.24,10.0,Calm,Calm,-,N/A,,Clear,0,2013-05-25 13:55:00
8:15 AM,53.2,9.5,17,30.24,10.0,Calm,Calm,-,N/A,,Clear,0,2013-05-25 14:15:00
8:35 AM,58.6,10.8,15,30.24,10.0,ESE,3.5,-,N/A,,Clear,120,2013-05-25 14:35:00
8:55 AM,62.2,11.3,14,30.23,10.0,ESE,4.6,-,N/A,,Clear,120,2013-05-25 14:55:00
9:15 AM,65.7,12.2,13,30.23,10.0,ESE,3.5,-,N/A,,Clear,120,2013-05-25 15:15:00
9:35 AM,68.4,13.6,12,30.22,10.0,East,8.1,-,N/A,,Clear,100,2013-05-25 15:35:00
9:55 AM,70.5,14.9,12,30.21,10.0,East,8.1,-,N/A,,Clear,100,2013-05-25 15:55:00
10:15 AM,73.0,15.3,11,30.20,10.0,ESE,10.4,-,N/A,,Clear,110,2013-05-25 16:15:00
10:35 AM,74.7,14.9,10,30.20,10.0,SSE,10.4,18.4,N/A,,Clear,150,2013-05-25 16:35:00
10:55 AM,76.1,14.7,10,30.19,10.0,SSE,5.8,17.3,N/A,,Clear,150,2013-05-25 16:55:00
11:15 AM,77.4,14.2,9,30.18,10.0,SSE,11.5,17.3,N/A,,Clear,160,2013-05-25 17:15:00
11:35 AM,78.4,9.3,7,30.18,10.0,South,12.7,24.2,N/A,,Clear,190,2013-05-25 17:35:00
11:55 AM,79.3,9.3,7,30.17,10.0,South,16.1,24.2,N/A,,Clear,190,2013-05-25 17:55:00
12:15 PM,80.2,10.0,7,30.17,10.0,South,16.1,33.4,N/A,,Clear,190,2013-05-25 18:15:00
12:35 PM,80.8,11.1,7,30.16,10.0,SW,11.5,26.5,N/A,,Clear,230,2013-05-25 18:35:00
12:55 PM,81.7,10.0,7,30.15,10.0,SSW,18.4,34.5,N/A,,Clear,200,2013-05-25 18:55:00
1:15 PM,83.7,9.1,6,30.14,10.0,SSW,13.8,23.0,N/A,,Clear,210,2013-05-25 19:15:00
1:35 PM,83.8,7.2,5,30.14,10.0,SW,18.4,29.9,N/A,,Clear,220,2013-05-25 19:35:00
1:55 PM,83.3,7.5,6,30.13,10.0,SSW,19.6,29.9,N/A,,Clear,200,2013-05-25 19:55:00
2:15 PM,83.3,8.2,6,30.12,10.0,SW,20.7,31.1,N/A,,Clear,220,2013-05-25 20:15:00
2:35 PM,84.4,8.1,6,30.12,10.0,WSW,17.3,26.5,N/A,,Clear,240,2013-05-25 20:35:00
2:55 PM,83.8,9.0,6,30.11,10.0,SW,11.5,18.4,N/A,,Clear,230,2013-05-25 20:55:00
3:15 PM,84.9,8.8,6,30.11,10.0,SW,11.5,27.6,N/A,,Clear,220,2013-05-25 21:15:00
3:35 PM,84.2,10.6,6,30.10,10.0,West,13.8,19.6,N/A,,Clear,280,2013-05-25 21:35:00
3:55 PM,84.9,11.7,6,30.10,10.0,WSW,12.7,21.9,N/A,,Clear,250,2013-05-25 21:55:00
4:15 PM,85.1,11.5,6,30.08,10.0,West,16.1,27.6,N/A,,Clear,270,2013-05-25 22:15:00
4:35 PM,84.7,10.2,6,30.07,10.0,WSW,23.0,29.9,N/A,,Clear,240,2013-05-25 22:35:00
4:55 PM,84.9,10.0,6,30.08,10.0,WSW,18.4,24.2,N/A,,Clear,240,2013-05-25 22:55:00
5:15 PM,84.4,10.6,6,30.07,10.0,SW,10.4,19.6,N/A,,Clear,230,2013-05-25 23:15:00
5:35 PM,84.2,10.6,6,30.06,10.0,WSW,10.4,20.7,N/A,,Clear,240,2013-05-25 23:35:00
5:55 PM,83.3,11.1,7,30.06,10.0,West,10.4,19.6,N/A,,Clear,260,2013-05-25 23:55:00
6:15 PM,83.5,10.9,7,30.06,10.0,West,10.4,21.9,N/A,,Clear,260,2013-05-26 00:15:00
6:35 PM,82.4,12.7,7,30.06,10.0,WSW,11.5,21.9,N/A,,Clear,240,2013-05-26 00:35:00
6:55 PM,81.5,14.0,8,30.06,10.0,West,15.0,20.7,N/A,,Clear,270,2013-05-26 00:55:00
7:15 PM,80.1,14.9,9,30.06,10.0,West,15.0,24.2,N/A,,Clear,270,2013-05-26 01:15:00
7:35 PM,79.2,15.3,9,30.07,10.0,West,15.0,-,N/A,,Clear,270,2013-05-26 01:35:00
7:55 PM,77.2,14.7,9,30.09,10.0,West,13.8,23.0,N/A,,Clear,280,2013-05-26 01:55:00
8:15 PM,75.2,14.0,10,30.09,10.0,West,15.0,23.0,N/A,,Clear,280,2013-05-26 02:15:00
8:35 PM,73.4,13.8,10,30.11,10.0,WNW,9.2,-,N/A,,Clear,290,2013-05-26 02:35:00
8:55 PM,71.2,14.5,11,30.11,10.0,WNW,10.4,-,N/A,,Clear,300,2013-05-26 02:55:00
9:15 PM,71.1,16.0,12,30.12,10.0,WNW,9.2,-,N/A,,Clear,290,2013-05-26 03:15:00
9:35 PM,70.9,15.4,12,30.12,10.0,WNW,11.5,18.4,N/A,,Clear,290,2013-05-26 03:35:00
9:55 PM,69.3,13.8,12,30.13,10.0,West,12.7,16.1,N/A,,Clear,280,2013-05-26 03:55:00
10:15 PM,69.4,12.9,11,30.14,10.0,West,13.8,19.6,N/A,,Clear,280,2013-05-26 04:15:00
10:35 PM,68.2,11.8,11,30.15,10.0,WSW,4.6,-,N/A,,Clear,250,2013-05-26 04:35:00
10:55 PM,65.5,11.1,12,30.15,10.0,West,9.2,-,N/A,,Clear,280,2013-05-26 04:55:00
11:15 PM,64.8,10.8,12,30.15,10.0,West,8.1,-,N/A,,Clear,280,2013-05-26 05:15:00
11:35 PM,59.9,9.3,14,30.16,10.0,West,5.8,-,N/A,,Clear,270,2013-05-26 05:35:00
11:55 PM,60.3,9.3,13,30.15,10.0,West,8.1,-,N/A,,Clear,280,2013-05-26 05:55:00